This is the latest recevied weather packets stored in our database for station/object N0EDB-13. If no packets are shown the sender has not sent any weather packets the latest 10 day(s).
| Time | Temp. | Humidity | Pressure | Rain* | Wind** | Luminosity | Snow |
|---|---|---|---|---|---|---|---|
| 1777851113 | 21.11° C | 21% | 1464.6 hPa | 0 mm | - | 61 W/m² | - |
| 1777850813 | 21.67° C | 19% | 1464.3 hPa | 0 mm | - | 61 W/m² | - |
| 1777850513 | 21.67° C | 20% | 1464.2 hPa | 0 mm | - | 73 W/m² | - |
| 1777850213 | 21.67° C | 20% | 1464 hPa | 0 mm | - | 96 W/m² | - |
| 1777849912 | 21.67° C | 19% | 1463.5 hPa | 0 mm | - | 113 W/m² | - |
| 1777849612 | 21.67° C | 21% | 1463.3 hPa | 0 mm | - | 119 W/m² | - |
| 1777849311 | 21.67° C | 22% | 1462.9 hPa | 0 mm | - | 116 W/m² | - |
| 1777849010 | 22.22° C | 20% | 1462.5 hPa | 0 mm | - | 108 W/m² | - |
| 1777848709 | 22.22° C | 20% | 1462.3 hPa | 0 mm | - | 119 W/m² | - |
| 1777848408 | 22.22° C | 19% | 1462.2 hPa | 0 mm | - | 136 W/m² | - |
| 1777848108 | 22.22° C | 19% | 1462.4 hPa | 0 mm | - | 140 W/m² | - |
| 1777847807 | 22.22° C | 19% | 1462.4 hPa | 0 mm | - | 147 W/m² | - |
| 1777847506 | 22.22° C | 19% | 1462.5 hPa | 0 mm | - | 157 W/m² | - |
| 1777847205 | 22.22° C | 21% | 1462.1 hPa | 0 mm | - | 163 W/m² | - |
| 1777846904 | 22.78° C | 20% | 1461.5 hPa | 0 mm | - | 165 W/m² | - |
| 1777846603 | 22.78° C | 19% | 1460.7 hPa | 0 mm | - | 174 W/m² | - |
| 1777846302 | 22.78° C | 19% | 1460.3 hPa | 0 mm | - | 176 W/m² | - |
| 1777846001 | 23.33° C | 17% | 1459.8 hPa | 0 mm | - | 187 W/m² | - |
| 1777845701 | 23.33° C | 16% | 1459.6 hPa | 0 mm | - | 192 W/m² | - |
| 1777845401 | 23.33° C | 16% | 1459.5 hPa | 0 mm | - | 199 W/m² | - |
| 1777845100 | 23.33° C | 16% | 1459.5 hPa | 0 mm | - | 209 W/m² | - |
| 1777844800 | 23.33° C | 16% | 1459.1 hPa | 0 mm | - | 221 W/m² | - |
| 1777844499 | 23.89° C | 16% | 1458.8 hPa | 0 mm | - | 226 W/m² | - |
| 1777844199 | 23.89° C | 16% | 1458.8 hPa | 0 mm | - | 246 W/m² | - |
| 1777843898 | 23.89° C | 16% | 1458.9 hPa | 0 mm | - | 293 W/m² | - |
* Rain latest hour (hover to see other rain measurements)
** Current wind speed in m/s (hover to see current wind gust speed)